Regional Weather Roundup
Issued by NWS

Home | Current Version | Previous Version | Text Only | Print | Product List | Glossary Off
Versions: 1 2 3 4 5 6 7 8 9 10 11 12 13 14 15 16 17 18 19 20 21 22 23 24 25 26 27 28 29 30 31 32 33 34 35 36 37 38 39 40 41 42 43 44 45 46 47 48 49 50

000
ASUS43 KMKX 170600
RWRWI

WISCONSIN REGIONAL WEATHER ROUNDUP
NATIONAL WEATHER SERVICE MILWAUKEE/SULLIVAN WI
100 AM CDT THU APR 17 2014

NOTE: "FAIR" INDICATES FEW OR NO CLOUDS BELOW 12,000 FEET WITH NO
SIGNIFICANT WEATHER AND/OR OBSTRUCTIONS TO VISIBILITY.

WIZ001-002-006>008-014>016-023>028-170700-
NORTHWEST WISCONSIN

CITY           SKY/WX    TMP DP  RH WIND       PRES   REMARKS
SUPERIOR ARPT  LGT SNOW  29  28  96 NE17G28   30.15S WCI  17
ASHLAND        LGT SNOW  28  27  96 NE17      30.12F VSB 1   WCI  16
6HR MIN TEMP:  27; 6HR MAX TEMP:  28; 6HR PCP:  0.09;

HAYWARD        LGT SNOW  30  27  88 NE8       30.03S FOG     WCI  22
6HR MIN TEMP:  28; 6HR MAX TEMP:  30; 6HR PCP:  0.03;

SIREN          LGT SNOW  28  27  94 NE14G21   30.03S WCI  17
RICE LAKE      LGT RAIN  35  32  90 E9        29.99S WCI  27
LADYSMITH      CLOUDY    37  29  73 E13       30.01S WCI  29
EAU CLAIRE     NOT AVBL
MENOMONIE      LGT RAIN  38  37  98 E12       29.94S WCI  30
NEW RICHMOND   MIX PCPN  33  33 100 N10       29.96S WCI  25
OSCEOLA        LGT SNOW  30  30 100 N9        30.01S WCI  22
$$

WIZ003>005-009-010-017-018-170700-
NORTH CENTRAL WISCONSIN

CITY           SKY/WX    TMP DP  RH WIND       PRES   REMARKS
WOODRUFF       LGT SNOW  32  29  90 SE12G18   30.08S VSB 1   WCI  23
RHINELANDER    LGT SNOW  30  28  92 E14       30.09S VSB 1   WCI  19
6HR MIN TEMP:  29; 6HR MAX TEMP:  30; 6HR PCP:  0.03;

EAGLE RIVER    LGT SNOW  30  29  96 SE13      30.11S WCI  20
LAND O LAKES   LGT SNOW  30  28  94 E9        30.13S WCI  21
PHILLIPS       LGT SNOW  31  30  95 E7        30.02F VSB 3/4 WCI  25
TOMAHAWK       LGT SNOW  31  30  93 E5        30.06F WCI  27
MEDFORD        CLOUDY    36  27  69 SE12G22   30.00F WCI  27
MERRILL        LGT SNOW  33  31  92 CALM      30.06F
$$

WIZ029-030-035-036-043>047-170700-
CENTRAL WISCONSIN

CITY           SKY/WX    TMP DP  RH WIND       PRES   REMARKS
WAUSAU         LGT SNOW  33  30  88 E13       30.06S FOG     WCI  24
6HR MIN TEMP:  33; 6HR MAX TEMP:  37; 6HR PCP: TRACE;

MOSINEE        FLURRIES  34  32  93 SE15G25   30.07S WCI  24
MARSHFIELD     CLOUDY    39  29  67 E15G25    30.00S WCI  31
6HR MIN TEMP:  37; 6HR MAX TEMP:  40; 6HR PCP: TRACE;

STEVENS POINT  LGT RAIN  35  29  78 SE13G23   30.06F WCI  27
WAUPACA        CLOUDY    43  27  52 SE12G18   30.11R
WAUTOMA        NOT AVBL
WISC RAPIDS    CLOUDY    41  29  62 SE13G22   30.03F
6HR MIN TEMP:  39; 6HR MAX TEMP:  44; 6HR PCP: TRACE;

CAMP DOUGLAS   NOT AVBL
$$

WIZ011>013-019>022-031-037>040-048>050-170700-
NORTHEAST WISCONSIN

CITY           SKY/WX    TMP DP  RH WIND       PRES   REMARKS
ANTIGO         CLOUDY    31  26  81 E21       30.10S WCI  19
STURGEON BAY   MOCLDY    39  25  56 SE16G24   30.21R WCI  30
6HR MIN TEMP:  32; 6HR MAX TEMP:  39;

GREEN BAY      CLOUDY    40  27  59 SE18G26   30.17S WCI  31
6HR MIN TEMP:  36; 6HR MAX TEMP:  40;

MANITOWOC      NOT AVBL
APPLETON       CLOUDY    37  27  65 SE13      30.13F WCI  29
CLINTONVILLE   CLOUDY    36  28  75 E9        30.13S WCI  29
OSHKOSH        CLOUDY    40  26  57 SE14      30.10F WCI  32
6HR MIN TEMP:  40; 6HR MAX TEMP:  41;

$$

WIZ032>034-041-042-053>061-170700-
SOUTHWEST WISCONSIN

CITY           SKY/WX    TMP DP  RH WIND       PRES   REMARKS
LA CROSSE      CLOUDY    50  29  44 SE18      29.90R
6HR MIN TEMP:  50; 6HR MAX TEMP:  53;

SPARTA         CLOUDY    48  27  45 SE15G21   29.93S
VIROQUA        CLOUDY    45  30  55 SE21G29   29.90S
BOSCOBEL       CLOUDY    49  28  44 SE10G21   29.95S
6HR MIN TEMP:  49; 6HR MAX TEMP:  53; 6HR PCP: TRACE;

PRAIRIE DU CHI FAIR      49  26  41 SE18G24   29.91S
PLATTEVILLE    CLOUDY    46  29  52 SE18      29.99S
$$

WIZ056-057-062-063-064-067-068-170700-
SOUTH CENTRAL WISCONSIN

CITY           SKY/WX    TMP DP  RH WIND       PRES   REMARKS
BARABOO/DELLS  CLOUDY    45  28  50 SE16G23   30.01R
LONE ROCK      NOT AVBL
WATERTOWN      FAIR      40  28  62 SE8       30.09S WCI  35
MADISON        CLOUDY    45  28  51 MISG      30.05F
6HR MIN TEMP:  45; 6HR MAX TEMP:  49;

MIDDLETON      CLOUDY    46  28  48 SE14G21   30.04S
MONROE         CLOUDY    45  29  54 SE21G28   30.03F
JANESVILLE     CLOUDY    43  28  56 SE14      30.08S
$$

WIZ051-052-058>065-066-070>072-170700-
SOUTHEAST WISCONSIN

CITY           SKY/WX    TMP DP  RH WIND       PRES   REMARKS
MILWAUKEE      MOCLDY    41  30  65 SE18      30.15F
6HR MIN TEMP:  40; 6HR MAX TEMP:  43;

WAUKESHA       FAIR      37  28  70 SE16      30.12F WCI  28
MILWAUKEE/TIMM FAIR      41  27  56 SE13G21   30.15F
RACINE         FAIR      40  29  64 SE16G24   30.17F WCI  31
6HR MIN TEMP:  40; 6HR MAX TEMP:  42;

BURLINGTON     FAIR      37  29  75 SW8       30.12F WCI  30
KENOSHA        FAIR      40  29  64 SE14      30.15S WCI  32
6HR MIN TEMP:  40; 6HR MAX TEMP:  43;

FOND DU LAC    FAIR      41  26  55 SE18      30.10F
6HR MIN TEMP:  40; 6HR MAX TEMP:  42;

SHEBOYGAN      FAIR      39  27  62 SE13G29   30.17S WCI  31
6HR MIN TEMP:  39; 6HR MAX TEMP:  41;

WEST BEND      FAIR      37  27  65 SE12G21   30.14S WCI  30
JUNEAU         MOCLDY    40  24  52 SE13      30.10F WCI  33
$$

LSZ147-162-170700-
LAKE SUPERIOR

STATION/POSITION TIME  TEMP    WIND        PRES    WAVE
                       AIR SEA DIR/SP/G            HT/PER
                 (UTC) (F)     (DEG/KT/KT) (MB)    (FT/S)
DEVILS ISLAND    0500   30      70/ 35/ 39 1022.8F
PORT WING        0509   29      50/ 20/ 26 1020.7F
SAXON HARBOR     0500           50/ 11/ 14 1020.0F
$$

LMZ867-665-643>646-170700-
LAKE MICHIGAN

STATION/POSITION TIME  TEMP    WIND        PRES    WAVE
                       AIR SEA DIR/SP/G            HT/PER
                 (UTC) (F)     (DEG/KT/KT) (MB)    (FT/S)
NORTHPORT PIER   0500   34      90/ 12/ 16 1023.7F
SISTER BAY       0523   36     130/ 11/ 17   N/A
SHEBOYGAN LAKESH 0500   39     140/ 23/ 26 1022.3F
PORT WASHINGTON  0540   39     140/ 15/ 20 1021.7F
MILWAUKEE LAKESH 0500   39     160/ 14/ 16   N/A
KENOSHA   LAKESH 0500   39     140/ 16/ 19   N/A
$$

TC  - TEMPERATURE IN CELSIUS
VSB - VISIBILITY IN STATUTE MILES
WCI - WIND CHILL INDEX
HX  - HEAT INDEX




USA.gov is the U.S. government's official web portal to all federal, state and local government web resources and services.